TimeEDT,TemperatureF,Dew PointF,Humidity,Sea Level PressureIn,VisibilityMPH,Wind Direction,Wind SpeedMPH,Gust SpeedMPH,PrecipitationIn,Events,Conditions,WindDirDegrees,DateUTC
12:51 AM,41.0,39.9,96,30.15,10.0,Calm,Calm,-,N/A,,Clear,0,2013-07-26 04:51:00
1:51 AM,39.0,37.0,93,30.14,10.0,Calm,Calm,-,N/A,,Clear,0,2013-07-26 05:51:00
2:51 AM,37.9,37.0,97,30.13,10.0,Calm,Calm,-,N/A,,Partly Cloudy,0,2013-07-26 06:51:00
3:04 AM,37.4,35.6,93,30.12,10.0,Calm,Calm,-,N/A,,Mostly Cloudy,0,2013-07-26 07:04:00
3:22 AM,37.4,35.6,93,30.13,10.0,Calm,Calm,-,N/A,,Scattered Clouds,0,2013-07-26 07:22:00
3:51 AM,36.0,35.1,97,30.14,10.0,Calm,Calm,-,N/A,,Partly Cloudy,0,2013-07-26 07:51:00
4:19 AM,37.4,35.6,93,30.12,2.5,Calm,Calm,-,N/A,,Mostly Cloudy,0,2013-07-26 08:19:00
4:27 AM,37.4,35.6,93,30.12,0.8,Calm,Calm,-,N/A,,Mist,0,2013-07-26 08:27:00
4:40 AM,35.6,35.6,100,30.12,3.0,Calm,Calm,-,N/A,,Mostly Cloudy,0,2013-07-26 08:40:00
4:49 AM,37.4,35.6,93,30.12,1.8,Calm,Calm,-,N/A,,Mostly Cloudy,0,2013-07-26 08:49:00
4:51 AM,37.0,36.0,96,30.13,1.2,Calm,Calm,-,N/A,,Mostly Cloudy,0,2013-07-26 08:51:00
5:00 AM,37.4,35.6,93,30.12,3.0,Calm,Calm,-,N/A,,Mostly Cloudy,0,2013-07-26 09:00:00
5:09 AM,37.4,35.6,93,30.12,1.8,Calm,Calm,-,N/A,,Overcast,0,2013-07-26 09:09:00
5:20 AM,37.4,35.6,93,30.12,0.5,Calm,Calm,-,N/A,Fog,Fog,0,2013-07-26 09:20:00
5:38 AM,37.4,37.4,100,30.13,0.2,Calm,Calm,-,N/A,Fog,Fog,0,2013-07-26 09:38:00
5:43 AM,37.4,35.6,93,30.13,1.0,Calm,Calm,-,N/A,,Mist,0,2013-07-26 09:43:00
5:46 AM,37.4,37.4,100,30.12,3.0,Calm,Calm,-,N/A,,Overcast,0,2013-07-26 09:46:00
5:51 AM,37.0,36.0,96,30.14,0.8,Calm,Calm,-,N/A,,Overcast,0,2013-07-26 09:51:00
6:00 AM,37.4,37.4,100,30.13,2.0,Calm,Calm,-,N/A,,Overcast,0,2013-07-26 10:00:00
6:07 AM,37.4,37.4,100,30.13,10.0,Calm,Calm,-,N/A,,Mostly Cloudy,0,2013-07-26 10:07:00
6:14 AM,37.4,37.4,100,30.13,2.0,Calm,Calm,-,N/A,,Scattered Clouds,0,2013-07-26 10:14:00
6:16 AM,37.4,37.4,100,30.13,1.0,Calm,Calm,-,N/A,,Mist,0,2013-07-26 10:16:00
6:23 AM,37.4,37.4,100,30.13,0.5,Calm,Calm,-,N/A,Fog,Fog,0,2013-07-26 10:23:00
6:44 AM,39.2,39.2,100,30.13,0.2,Calm,Calm,-,N/A,Fog,Fog,0,2013-07-26 10:44:00
6:51 AM,41.0,39.9,96,30.14,0.8,Calm,Calm,-,N/A,,Mist,0,2013-07-26 10:51:00
6:54 AM,41.0,39.2,93,30.13,3.0,Calm,Calm,-,N/A,,Mostly Cloudy,0,2013-07-26 10:54:00
7:07 AM,42.8,42.8,100,30.13,10.0,Calm,Calm,-,N/A,,Scattered Clouds,0,2013-07-26 11:07:00
7:51 AM,48.0,46.9,96,30.13,10.0,Calm,Calm,-,N/A,,Clear,0,2013-07-26 11:51:00
8:51 AM,54.0,50.0,86,30.13,10.0,Calm,Calm,-,N/A,,Clear,0,2013-07-26 12:51:00
9:51 AM,61.0,50.0,67,30.13,10.0,NNE,3.5,-,N/A,,Clear,20,2013-07-26 13:51:00
10:51 AM,64.0,52.0,65,30.12,10.0,Calm,Calm,-,N/A,,Clear,0,2013-07-26 14:51:00
11:51 AM,66.0,51.1,59,30.12,10.0,Calm,Calm,-,N/A,,Partly Cloudy,0,2013-07-26 15:51:00
12:51 PM,69.1,51.1,53,30.10,10.0,Variable,4.6,-,N/A,,Scattered Clouds,0,2013-07-26 16:51:00
1:51 PM,70.0,52.0,53,30.09,10.0,East,9.2,-,N/A,,Mostly Cloudy,80,2013-07-26 17:51:00
2:51 PM,73.0,52.0,48,30.07,10.0,NE,9.2,-,N/A,,Partly Cloudy,40,2013-07-26 18:51:00
3:51 PM,71.1,52.0,51,30.07,10.0,East,9.2,-,N/A,,Scattered Clouds,80,2013-07-26 19:51:00
4:51 PM,72.0,52.0,49,30.06,10.0,NNE,6.9,-,N/A,,Scattered Clouds,30,2013-07-26 20:51:00
5:51 PM,71.1,51.1,49,30.06,10.0,Calm,Calm,-,N/A,,Mostly Cloudy,0,2013-07-26 21:51:00
6:51 PM,71.1,51.1,49,30.06,10.0,NE,9.2,-,N/A,,Clear,50,2013-07-26 22:51:00
7:51 PM,66.9,53.1,61,30.05,10.0,ENE,5.8,-,N/A,,Clear,60,2013-07-26 23:51:00
8:51 PM,59.0,52.0,78,30.06,10.0,Calm,Calm,-,N/A,,Clear,0,2013-07-27 00:51:00
9:51 PM,53.1,51.1,93,30.07,10.0,Calm,Calm,-,N/A,,Clear,0,2013-07-27 01:51:00
10:51 PM,48.9,48.0,97,30.07,10.0,Calm,Calm,-,N/A,,Clear,0,2013-07-27 02:51:00
11:51 PM,46.9,46.0,97,30.06,4.0,Calm,Calm,-,N/A,,Clear,0,2013-07-27 03:51:00